SL-16 DEB, 22549

Orbit data source: Space-Track

SL-16 DEB, 22549 is space debris in LEO originally from a launch on Fri, 25 Dec 1992 UTC launched from the Tyuratam Missile And Space Complex (TTMTR). Debris objects in space refer to the collection of defunct objects orbiting the Earth. Examples of debris include non-operational satellites, rocket bodies, and fragments generated from explosions, collisions, or faulty payload assembly.

Loading next visibility...
Identifier
22549, 1992-093HK
Orbit
LEO
Country
Flag of CISCIS
Related business
Manufacturer
Unknown
Mission
Spacecraft
Bus & Motor
Unknown
Mass
Unknown
Launch date (UTC)
1992-12-25 (33 years ago)
Launch vehicle
Unknown
Launch site
Tyuratam Missile And Space Complex (TTMTR)
Object type
Payload
Rocket body
Debris
Shape & HBR
Unknown shape, 0.1 m
Radar Cross Section
Small (<0.1 m²)

Expand to show TLE details & history
Last TLE update: 15 hours ago

TLE from 15 hours ago
0 SL-16 DEB
1 22549U 92093HK  26133.10181778  .00001392  00000-0  62228-3 0  9991
2 22549  71.2412 277.3539 0093585 234.3261 124.9130 14.22013159706852
Epoch: 2026-05-13T02:26Z
TLE epoch observation values (Epoch: 2026-05-13T02:26:37.056Z)
Latitude
0.00003°
Longitude
9.83284°
Altitude
859.949 km
Speed
7.403 km/s
True Right ascension
18h 29m 24s
True Declination
0° 00' 00"
Sunlit
Object was in full shadow at epoch
Visualization orbit readout
Latitude
Unknown
Longitude
Unknown
Altitude
Unknown
Speed
Unknown
Apparent Right ascension
Unknown
Apparent Declination
Unknown
Sunlit
N/A
Visualization observer readout
Local Sidereal Time
01:57:05
Azimuth
Unknown
Elevation
Unknown
Doppler factor
Unknown
Orbital elements
Apogee altitude
883.777 km
Perigee altitude
749.116 km
Semi-major axis
7,194.584 km
Eccentricity
0.00936
Inclination
71.2412°
RAAN
277.3539°
Arg. of periapsis
234.3261°
True anomaly
125.78651°
Mean anomaly
124.913°
Eccentric anomaly
125.35034°
Mean motion
3.5566 °/min
Orbital period
101.22 mins
BSTAR
0.00062228
Loading maneuver chart data...
Computing Atmospheric mass density...
Loading historical data...
Loading historical data...
Loading historical data...
Loading historical data...
Loading historical data...
Loading historical data...
Loading historical data...

Documentation

Showing up to 5 results
|